When you browse on this site, cookies collect data to enhance your experience and personalize the content and advertising you see.
Visit our Privacy Policy to learn more. By continuing to use the site, you agree to this use of cookies and data.
  • In Hungary
  • List of Countries
  • For 7 days
  • Water Temperature
  • Satellite Maps
  • Weather Map
  • News
  • Weather Widgets
  • user-avatar
    Login

    Hourly Weather San Leandro

    Today, 26 June, Wednesday

    Time Temperature Precipitation Wind Pressure Humidity
    00:00 +15°C° 0 mm 2 mps 758 mmHg 69%
    01:00 +15°C° 0 mm 2 mps 758 mmHg 70%
    02:00 +15°C° 0 mm 2 mps 758 mmHg 71%
    03:00 +15°C° 0 mm 2 mps 758 mmHg 73%
    04:00 +15°C° 0 mm 2 mps 758 mmHg 76%
    05:00 +16°C° 0 mm 2 mps 758 mmHg 74%
    06:00 +17°C° 0 mm 2 mps 758 mmHg 71%
    07:00 +17°C° 0 mm 2 mps 758 mmHg 68%
    08:00 +19°C° 0 mm 3 mps 759 mmHg 65%
    09:00 +20°C° 0 mm 3 mps 759 mmHg 62%
    10:00 +21°C° 0 mm 4 mps 759 mmHg 59%
    11:00 +22°C° 0 mm 5 mps 759 mmHg 57%
    12:00 +22°C° 0 mm 5 mps 759 mmHg 54%
    13:00 +22°C° 0 mm 5 mps 760 mmHg 52%
    14:00 +22°C° 0 mm 5 mps 760 mmHg 52%
    15:00 +21°C° 0 mm 5 mps 760 mmHg 52%
    16:00 +21°C° 0 mm 5 mps 760 mmHg 52%
    17:00 +20°C° 0 mm 5 mps 760 mmHg 56%
    18:00 +18°C° 0 mm 4 mps 760 mmHg 61%
    19:00 +17°C° 0 mm 4 mps 760 mmHg 65%
    20:00 +15°C° 0 mm 4 mps 760 mmHg 71%
    21:00 +16°C° 0 mm 3 mps 761 mmHg 78%
    22:00 +14°C° 0 mm 3 mps 761 mmHg 84%
    23:00 +15°C° 0 mm 2 mps 761 mmHg 85%

    Tomorrow, 27 June, Thursday

    Time Temperature Precipitation Wind Pressure Humidity
    00:00 +14°C° 0 mm 2 mps 761 mmHg 86%
    01:00 +14°C° 0 mm 2 mps 761 mmHg 87%
    02:00 +14°C° 0 mm 2 mps 761 mmHg 87%
    03:00 +14°C° 0 mm 2 mps 761 mmHg 88%
    04:00 +14°C° 0 mm 2 mps 761 mmHg 88%
    05:00 +15°C° 0 mm 2 mps 761 mmHg 83%
    06:00 +16°C° 0 mm 2 mps 761 mmHg 79%
    07:00 +16°C° 0 mm 2 mps 762 mmHg 75%
    08:00 +18°C° 0 mm 2 mps 762 mmHg 66%
    09:00 +19°C° 0 mm 3 mps 762 mmHg 57%
    10:00 +21°C° 0 mm 3 mps 762 mmHg 48%
    11:00 +21°C° 0 mm 4 mps 762 mmHg 47%
    12:00 +22°C° 0 mm 4 mps 762 mmHg 45%
    13:00 +22°C° 0 mm 5 mps 762 mmHg 44%
    14:00 +22°C° 0 mm 5 mps 762 mmHg 45%
    15:00 +22°C° 0 mm 5 mps 762 mmHg 47%
    16:00 +21°C° 0 mm 5 mps 761 mmHg 48%
    17:00 +20°C° 0 mm 5 mps 761 mmHg 53%
    18:00 +19°C° 0 mm 4 mps 761 mmHg 58%
    19:00 +18°C° 0 mm 4 mps 761 mmHg 64%
    20:00 +17°C° 0 mm 3 mps 761 mmHg 67%
    21:00 +17°C° 0 mm 3 mps 761 mmHg 71%
    22:00 +16°C° 0 mm 3 mps 762 mmHg 74%
    23:00 +16°C° 0 mm 2 mps 761 mmHg 75%

    Day after tomorrow, 28 June, Friday

    Time Temperature Precipitation Wind Pressure Humidity
    00:00 +16°C° 0 mm 2 mps 761 mmHg 75%
    01:00 +16°C° 0 mm 2 mps 761 mmHg 75%
    02:00 +15°C° 0 mm 2 mps 761 mmHg 75%
    03:00 +15°C° 0 mm 2 mps 761 mmHg 74%
    04:00 +15°C° 0 mm 2 mps 760 mmHg 74%
    05:00 +16°C° 0 mm 2 mps 761 mmHg 72%
    06:00 +16°C° 0 mm 2 mps 761 mmHg 69%
    07:00 +16°C° 0 mm 2 mps 761 mmHg 67%
    08:00 +18°C° 0 mm 2 mps 761 mmHg 60%
    09:00 +20°C° 0 mm 2 mps 761 mmHg 53%
    10:00 +23°C° 0 mm 2 mps 761 mmHg 46%
    11:00 +24°C° 0 mm 2 mps 761 mmHg 43%
    12:00 +24°C° 0 mm 3 mps 761 mmHg 40%
    13:00 +25°C° 0 mm 4 mps 761 mmHg 37%
    14:00 +25°C° 0 mm 4 mps 761 mmHg 38%
    15:00 +25°C° 0 mm 4 mps 760 mmHg 38%
    16:00 +23°C° 0 mm 4 mps 760 mmHg 39%
    17:00 +22°C° 0 mm 4 mps 760 mmHg 44%
    18:00 +20°C° 0 mm 3 mps 760 mmHg 50%
    19:00 +19°C° 0 mm 3 mps 760 mmHg 55%
    20:00 +18°C° 0 mm 3 mps 760 mmHg 61%
    21:00 +17°C° 0 mm 3 mps 760 mmHg 67%
    22:00 +15°C° 0 mm 2 mps 761 mmHg 73%
    23:00 +15°C° 0 mm 2 mps 761 mmHg 76%

    29 June, Saturday

    Time Temperature Precipitation Wind Pressure Humidity
    00:00 +14°C° 0 mm 2 mps 760 mmHg 79%
    01:00 +14°C° 0 mm 2 mps 760 mmHg 82%
    02:00 +14°C° 0 mm 2 mps 760 mmHg 82%
    03:00 +13°C° 0 mm 2 mps 760 mmHg 83%
    04:00 +13°C° 0 mm 1 mps 760 mmHg 84%
    05:00 +14°C° 0 mm 1 mps 760 mmHg 79%
    06:00 +15°C° 0 mm 1 mps 760 mmHg 73%
    07:00 +18°C° 0 mm 1 mps 760 mmHg 68%
    08:00 +20°C° 0 mm 1 mps 760 mmHg 60%
    09:00 +22°C° 0 mm 1 mps 760 mmHg 51%
    10:00 +24°C° 0 mm 2 mps 760 mmHg 42%
    11:00 +25°C° 0 mm 2 mps 760 mmHg 40%
    12:00 +26°C° 0 mm 3 mps 760 mmHg 38%
    13:00 +26°C° 0 mm 4 mps 760 mmHg 36%
    14:00 +26°C° 0 mm 4 mps 759 mmHg 38%
    15:00 +25°C° 0 mm 4 mps 759 mmHg 40%
    16:00 +23°C° 0 mm 4 mps 759 mmHg 42%
    17:00 +21°C° 0 mm 4 mps 759 mmHg 49%
    18:00 +20°C° 0 mm 4 mps 759 mmHg 55%
    19:00 +18°C° 0 mm 3 mps 759 mmHg 61%
    20:00 +17°C° 0 mm 3 mps 760 mmHg 67%
    21:00 +16°C° 0 mm 3 mps 760 mmHg 73%
    22:00 +14°C° 0 mm 3 mps 760 mmHg 79%
    23:00 +14°C° 0 mm 3 mps 760 mmHg 81%

    30 June, Sunday

    Time Temperature Precipitation Wind Pressure Humidity
    00:00 +14°C° 0 mm 2 mps 760 mmHg 82%
    01:00 +14°C° 0 mm 2 mps 760 mmHg 84%
    02:00 +14°C° 0 mm 2 mps 760 mmHg 85%
    03:00 +14°C° 0 mm 2 mps 760 mmHg 85%
    04:00 +14°C° 0 mm 2 mps 760 mmHg 85%
    05:00 +15°C° 0 mm 2 mps 760 mmHg 82%
    06:00 +15°C° 0 mm 2 mps 760 mmHg 78%
    07:00 +16°C° 0 mm 2 mps 760 mmHg 75%
    08:00 +18°C° 0 mm 2 mps 760 mmHg 66%
    09:00 +20°C° 0 mm 3 mps 761 mmHg 57%
    10:00 +22°C° 0 mm 3 mps 761 mmHg 48%
    11:00 +22°C° 0 mm 3 mps 761 mmHg 47%
    12:00 +23°C° 0 mm 4 mps 761 mmHg 45%
    13:00 +23°C° 0 mm 4 mps 760 mmHg 44%
    14:00 +23°C° 0 mm 4 mps 760 mmHg 46%
    15:00 +23°C° 0 mm 4 mps 760 mmHg 47%
    16:00 +22°C° 0 mm 4 mps 760 mmHg 49%
    17:00 +21°C° 0 mm 4 mps 760 mmHg 55%
    18:00 +19°C° 0 mm 4 mps 760 mmHg 61%
    19:00 +18°C° 0 mm 4 mps 760 mmHg 67%
    20:00 +17°C° 0 mm 3 mps 760 mmHg 72%
    21:00 +16°C° 0 mm 3 mps 761 mmHg 76%
    22:00 +14°C° 0 mm 3 mps 761 mmHg 81%
    23:00 +14°C° 0 mm 3 mps 761 mmHg 82%

    1 July, Monday

    Time Temperature Precipitation Wind Pressure Humidity
    00:00 +14°C° 0 mm 3 mps 761 mmHg 84%
    01:00 +14°C° 0 mm 2 mps 761 mmHg 85%
    02:00 +14°C° 0 mm 2 mps 761 mmHg 85%
    03:00 +14°C° 0 mm 2 mps 761 mmHg 85%
    04:00 +14°C° 0 mm 2 mps 760 mmHg 85%
    05:00 +15°C° 0 mm 2 mps 761 mmHg 82%
    06:00 +16°C° 0 mm 2 mps 761 mmHg 78%
    07:00 +16°C° 0 mm 2 mps 761 mmHg 74%
    08:00 +19°C° 0 mm 2 mps 761 mmHg 65%
    09:00 +22°C° 0 mm 1 mps 761 mmHg 57%
    10:00 +24°C° 0 mm 1 mps 761 mmHg 48%
    11:00 +25°C° 0 mm 2 mps 760 mmHg 46%
    12:00 +25°C° 0 mm 3 mps 760 mmHg 44%
    13:00 +26°C° 0 mm 4 mps 760 mmHg 42%
    14:00 +26°C° 0 mm 4 mps 759 mmHg 43%
    15:00 +25°C° 0 mm 4 mps 759 mmHg 45%
    16:00 +23°C° 0 mm 4 mps 759 mmHg 46%
    17:00 +22°C° 0 mm 4 mps 758 mmHg 51%
    18:00 +20°C° 0 mm 4 mps 758 mmHg 56%
    19:00 +19°C° 0 mm 3 mps 758 mmHg 61%
    20:00 +18°C° 0 mm 3 mps 759 mmHg 66%
    21:00 +17°C° 0 mm 3 mps 759 mmHg 71%
    22:00 +16°C° 0 mm 3 mps 759 mmHg 76%
    23:00 +14°C° 0 mm 3 mps 759 mmHg 78%
    Show more